User: anonymous   Login
Location: York
(31.8935°S, 116.7682°E)
Time: 23:37:01
(UTC+08:00)
Language:

MOZHAYETS 4 - Orbit

View from above orbital plane
View from above orbital plane
View from above satellite
View from above satellite

Ground track
Ground track

The orbit data is extracted from the following two-line orbital elements,

1 27939U 03042A   21215.24028408  .00000131  00000-0  32097-4 0  9998
2 27939  98.1470 352.0228 0014021 128.9216 231.3238 14.67006637954381
Epoch (UTC): 03 August 2021 05:46:00
Eccentricity: 0.0014021
inclination: 98.1470°
perigee height: 661 km
apogee height: 680 km
right ascension of ascending node: 352.0228°
argument of perigee: 128.9216°
revolutions per day: 14.67006637
mean anomaly at epoch: 231.3238°
orbit number at epoch: 95438

The dashed part of the orbit path shows where the satellite is in the earth's shadow,  

DLR